Time,TemperatureF,DewpointF,PressureIn,WindDirection,WindDirectionDegrees,WindSpeedMPH,WindSpeedGustMPH,Humidity,HourlyPrecipIn,Conditions,Clouds,dailyrainin,SoftwareType,DateUTC
2013-05-14 00:01:00,42.1,32.0,30.05,ESE,113,1.1,2.2,67,0.00,,,0.00,WUHU216HW,2013-05-14 04:01:00,
2013-05-14 00:06:00,42.1,31.6,30.05,SE,135,0.4,2.2,66,0.00,,,0.00,WUHU216HW,2013-05-14 04:06:00,
2013-05-14 00:11:00,42.1,32.0,30.05,ENE,68,1.6,1.6,67,0.00,,,0.00,WUHU216HW,2013-05-14 04:11:00,
2013-05-14 00:16:00,42.3,32.1,30.05,ENE,68,2.2,2.2,67,0.00,,,0.00,WUHU216HW,2013-05-14 04:16:00,
2013-05-14 00:21:00,42.3,31.8,30.05,SE,135,3.4,3.4,66,0.00,,,0.00,WUHU216HW,2013-05-14 04:21:00,
2013-05-14 00:26:00,42.3,31.8,30.05,ENE,68,2.5,3.4,66,0.00,,,0.00,WUHU216HW,2013-05-14 04:26:00,
2013-05-14 00:31:00,42.3,31.8,30.04,East,90,1.3,3.4,66,0.00,,,0.00,WUHU216HW,2013-05-14 04:31:00,
2013-05-14 00:36:00,42.3,32.1,30.04,ENE,68,2.5,2.5,67,0.00,,,0.00,WUHU216HW,2013-05-14 04:36:00,
2013-05-14 00:41:00,42.3,32.1,30.04,ESE,113,1.1,2.5,67,0.00,,,0.00,WUHU216HW,2013-05-14 04:41:00,
2013-05-14 00:46:00,42.3,32.1,30.04,SE,135,0.9,3.1,67,0.00,,,0.00,WUHU216HW,2013-05-14 04:46:00,
2013-05-14 00:51:00,42.3,32.1,30.04,SE,135,0.2,3.1,67,0.00,,,0.00,WUHU216HW,2013-05-14 04:51:00,
2013-05-14 00:56:00,42.3,32.5,30.04,WNW,293,0.0,1.8,68,0.00,,,0.00,WUHU216HW,2013-05-14 04:56:00,
2013-05-14 01:01:00,42.1,32.3,30.03,SE,135,0.4,1.6,68,0.00,,,0.00,WUHU216HW,2013-05-14 05:01:00,
2013-05-14 01:06:00,42.1,32.3,30.03,SE,135,1.1,1.6,68,0.00,,,0.00,WUHU216HW,2013-05-14 05:06:00,
2013-05-14 01:11:00,42.1,32.3,30.03,ESE,113,0.9,1.1,68,0.00,,,0.00,WUHU216HW,2013-05-14 05:11:00,
2013-05-14 01:16:00,41.9,32.1,30.03,SE,135,0.7,1.1,68,0.00,,,0.00,WUHU216HW,2013-05-14 05:16:00,
2013-05-14 01:21:00,41.9,31.8,30.03,SE,135,0.0,1.1,67,0.00,,,0.00,WUHU216HW,2013-05-14 05:21:00,
2013-05-14 01:26:00,41.8,31.6,30.03,ESE,113,1.1,1.3,67,0.00,,,0.00,WUHU216HW,2013-05-14 05:26:00,
2013-05-14 01:31:00,41.4,31.2,30.03,SE,135,0.4,1.8,67,0.00,,,0.00,WUHU216HW,2013-05-14 05:31:00,
2013-05-14 01:36:00,41.2,31.1,30.03,ESE,113,1.1,1.8,67,0.00,,,0.00,WUHU216HW,2013-05-14 05:36:00,
2013-05-14 01:41:00,40.9,30.7,30.03,East,90,1.1,1.1,67,0.00,,,0.00,WUHU216HW,2013-05-14 05:41:00,
2013-05-14 01:46:00,40.7,30.5,30.03,SE,135,2.0,2.0,67,0.00,,,0.00,WUHU216HW,2013-05-14 05:46:00,
2013-05-14 01:51:00,40.5,30.3,30.03,SE,135,3.4,3.4,67,0.00,,,0.00,WUHU216HW,2013-05-14 05:51:00,
2013-05-14 01:56:00,40.1,30.0,30.02,ESE,113,1.1,3.4,67,0.00,,,0.00,WUHU216HW,2013-05-14 05:56:00,
2013-05-14 02:01:00,40.1,30.0,30.03,East,90,1.1,2.9,67,0.00,,,0.00,WUHU216HW,2013-05-14 06:01:00,
2013-05-14 02:06:00,40.0,29.8,30.03,East,90,0.4,1.1,67,0.00,,,0.00,WUHU216HW,2013-05-14 06:06:00,
2013-05-14 02:11:00,40.0,29.8,30.03,ESE,113,0.9,1.1,67,0.00,,,0.00,WUHU216HW,2013-05-14 06:11:00,
2013-05-14 02:16:00,39.8,30.1,30.03,East,90,0.9,1.6,68,0.00,,,0.00,WUHU216HW,2013-05-14 06:16:00,
2013-05-14 02:21:00,39.6,29.9,30.03,East,90,1.8,1.8,68,0.00,,,0.00,WUHU216HW,2013-05-14 06:21:00,
2013-05-14 02:26:00,39.4,29.7,30.03,SE,135,1.6,1.8,68,0.00,,,0.00,WUHU216HW,2013-05-14 06:26:00,
2013-05-14 02:31:00,39.2,29.5,30.03,ESE,113,1.6,2.0,68,0.00,,,0.00,WUHU216HW,2013-05-14 06:31:00,
2013-05-14 02:36:00,39.2,29.5,30.03,East,90,0.7,2.0,68,0.00,,,0.00,WUHU216HW,2013-05-14 06:36:00,
2013-05-14 02:41:00,39.2,29.5,30.03,ESE,113,1.3,1.3,68,0.00,,,0.00,WUHU216HW,2013-05-14 06:41:00,
2013-05-14 02:46:00,39.1,29.7,30.03,East,90,0.9,1.3,69,0.00,,,0.00,WUHU216HW,2013-05-14 06:46:00,
2013-05-14 02:51:00,39.1,29.7,30.03,ENE,68,2.2,2.2,69,0.00,,,0.00,WUHU216HW,2013-05-14 06:51:00,
2013-05-14 02:56:00,38.9,29.9,30.03,East,90,2.0,2.5,70,0.00,,,0.00,WUHU216HW,2013-05-14 06:56:00,
2013-05-14 03:01:00,38.9,29.9,30.04,ESE,113,1.8,2.5,70,0.00,,,0.00,WUHU216HW,2013-05-14 07:01:00,
2013-05-14 03:06:00,38.9,29.5,30.04,East,90,1.8,1.8,69,0.00,,,0.00,WUHU216HW,2013-05-14 07:06:00,
2013-05-14 03:11:00,38.7,29.3,30.04,ENE,68,1.1,1.8,69,0.00,,,0.00,WUHU216HW,2013-05-14 07:11:00,
2013-05-14 03:16:00,38.3,29.1,30.04,ENE,68,2.0,2.0,69,0.00,,,0.00,WUHU216HW,2013-05-14 07:16:00,
2013-05-14 03:21:00,38.2,29.3,30.04,ENE,68,1.8,2.0,70,0.00,,,0.00,WUHU216HW,2013-05-14 07:21:00,
2013-05-14 03:26:00,38.2,29.6,30.04,ESE,113,2.2,2.5,71,0.00,,,0.00,WUHU216HW,2013-05-14 07:26:00,
2013-05-14 03:31:00,38.2,29.6,30.05,SE,135,1.3,2.5,71,0.00,,,0.00,WUHU216HW,2013-05-14 07:31:00,
2013-05-14 03:36:00,38.2,29.3,30.05,East,90,0.7,1.6,70,0.00,,,0.00,WUHU216HW,2013-05-14 07:36:00,
2013-05-14 03:41:00,38.0,29.1,30.05,East,90,1.6,1.6,70,0.00,,,0.00,WUHU216HW,2013-05-14 07:41:00,
2013-05-14 03:46:00,37.8,29.0,30.05,ESE,113,0.0,1.6,70,0.00,,,0.00,WUHU216HW,2013-05-14 07:46:00,
2013-05-14 03:51:00,37.8,29.3,30.05,SE,135,0.9,1.1,71,0.00,,,0.00,WUHU216HW,2013-05-14 07:51:00,
2013-05-14 03:56:00,37.6,29.1,30.05,ESE,113,0.0,1.3,71,0.00,,,0.00,WUHU216HW,2013-05-14 07:56:00,
2013-05-14 04:01:00,37.6,29.1,30.05,East,90,0.0,1.3,71,0.00,,,0.00,WUHU216HW,2013-05-14 08:01:00,
2013-05-14 04:06:00,37.6,29.1,30.05,ENE,68,0.0,0.0,71,0.00,,,0.00,WUHU216HW,2013-05-14 08:06:00,
2013-05-14 04:11:00,37.6,29.1,30.05,West,270,0.0,0.0,71,0.00,,,0.00,WUHU216HW,2013-05-14 08:11:00,
2013-05-14 04:16:00,37.8,29.3,30.05,West,270,0.0,0.0,71,0.00,,,0.00,WUHU216HW,2013-05-14 08:16:00,
2013-05-14 04:21:00,37.8,29.3,30.05,West,270,0.4,0.4,71,0.00,,,0.00,WUHU216HW,2013-05-14 08:21:00,
2013-05-14 04:26:00,37.8,29.6,30.05,West,270,0.4,0.4,72,0.00,,,0.00,WUHU216HW,2013-05-14 08:26:00,
2013-05-14 04:31:00,37.8,29.6,30.05,West,270,0.4,0.4,72,0.00,,,0.00,WUHU216HW,2013-05-14 08:31:00,
2013-05-14 04:52:00,38.5,31.6,30.06,NNW,338,1.6,1.6,76,0.00,,,0.00,WUHU216HW,2013-05-14 08:52:00,
2013-05-14 04:57:00,38.5,31.6,30.06,NW,315,1.8,2.5,76,0.00,,,0.00,WUHU216HW,2013-05-14 08:57:00,
2013-05-14 05:02:00,38.9,32.0,30.06,NW,315,2.5,2.7,76,0.00,,,0.00,WUHU216HW,2013-05-14 09:02:00,
2013-05-14 05:07:00,39.2,31.6,30.06,NW,315,2.9,3.1,74,0.00,,,0.00,WUHU216HW,2013-05-14 09:07:00,
2013-05-14 05:12:00,39.4,31.8,30.07,NW,315,1.3,3.1,74,0.00,,,0.00,WUHU216HW,2013-05-14 09:12:00,
2013-05-14 05:17:00,39.4,31.4,30.07,ESE,113,0.2,2.7,73,0.00,,,0.00,WUHU216HW,2013-05-14 09:17:00,
2013-05-14 05:22:00,39.2,31.0,30.07,East,90,1.8,1.8,72,0.00,,,0.00,WUHU216HW,2013-05-14 09:22:00,
2013-05-14 05:27:00,38.7,30.4,30.07,ESE,113,1.3,2.5,72,0.00,,,0.00,WUHU216HW,2013-05-14 09:27:00,
2013-05-14 05:32:00,38.0,29.8,30.07,ESE,113,1.3,2.5,72,0.00,,,0.00,WUHU216HW,2013-05-14 09:32:00,
2013-05-14 05:37:00,37.4,29.3,30.07,East,90,2.0,2.2,72,0.00,,,0.00,WUHU216HW,2013-05-14 09:37:00,
2013-05-14 05:42:00,37.1,29.3,30.07,ENE,68,2.2,2.2,73,0.00,,,0.00,WUHU216HW,2013-05-14 09:42:00,
2013-05-14 05:47:00,36.9,29.1,30.07,ESE,113,0.9,2.2,73,0.00,,,0.00,WUHU216HW,2013-05-14 09:47:00,
2013-05-14 05:52:00,36.9,29.3,30.07,ESE,113,0.0,1.6,74,0.00,,,0.00,WUHU216HW,2013-05-14 09:52:00,
2013-05-14 05:57:00,36.9,29.3,30.07,ESE,113,0.0,0.0,74,0.00,,,0.00,WUHU216HW,2013-05-14 09:57:00,
2013-05-14 06:02:00,37.3,30.4,30.08,NW,315,1.8,1.8,76,0.00,,,0.00,WUHU216HW,2013-05-14 10:02:00,
2013-05-14 06:07:00,37.8,30.9,30.08,NW,315,1.3,1.8,76,0.00,,,0.00,WUHU216HW,2013-05-14 10:07:00,
2013-05-14 06:12:00,38.3,31.4,30.08,NW,315,2.9,2.9,76,0.00,,,0.00,WUHU216HW,2013-05-14 10:12:00,
2013-05-14 06:17:00,38.7,31.8,30.09,NW,315,1.3,3.1,76,0.00,,,0.00,WUHU216HW,2013-05-14 10:17:00,
2013-05-14 06:22:00,39.2,32.0,30.08,NW,315,3.4,3.4,75,0.00,,,0.00,WUHU216HW,2013-05-14 10:22:00,
2013-05-14 06:27:00,39.6,32.0,30.09,NW,315,2.9,3.4,74,0.00,,,0.00,WUHU216HW,2013-05-14 10:27:00,
2013-05-14 06:32:00,40.0,32.3,30.09,WNW,293,1.8,3.4,74,0.00,,,0.00,WUHU216HW,2013-05-14 10:32:00,
2013-05-14 06:37:00,40.0,32.3,30.09,NW,315,2.9,2.9,74,0.00,,,0.00,WUHU216HW,2013-05-14 10:37:00,
2013-05-14 06:42:00,40.5,33.1,30.09,WNW,293,2.2,4.7,75,0.00,,,0.00,WUHU216HW,2013-05-14 10:42:00,
2013-05-14 06:47:00,40.7,33.0,30.09,NW,315,2.0,4.7,74,0.00,,,0.00,WUHU216HW,2013-05-14 10:47:00,
2013-05-14 06:52:00,40.7,32.7,30.09,NW,315,1.8,2.9,73,0.00,,,0.00,WUHU216HW,2013-05-14 10:52:00,
2013-05-14 06:57:00,40.7,32.7,30.10,West,270,0.7,2.5,73,0.00,,,0.00,WUHU216HW,2013-05-14 10:57:00,
2013-05-14 07:02:00,40.7,32.7,30.10,NW,315,1.3,2.5,73,0.00,,,0.00,WUHU216HW,2013-05-14 11:02:00,
2013-05-14 07:07:00,40.9,32.9,30.10,West,270,2.0,2.5,73,0.00,,,0.00,WUHU216HW,2013-05-14 11:07:00,
2013-05-14 07:13:00,41.2,33.2,30.10,NW,315,3.4,4.0,73,0.00,,,0.00,WUHU216HW,2013-05-14 11:13:00,
2013-05-14 07:18:00,41.4,33.0,30.10,WNW,293,3.1,4.0,72,0.00,,,0.00,WUHU216HW,2013-05-14 11:18:00,
2013-05-14 07:23:00,41.8,33.8,30.10,WNW,293,5.1,5.1,73,0.00,,,0.00,WUHU216HW,2013-05-14 11:23:00,
2013-05-14 07:28:00,41.9,33.9,30.11,WNW,293,4.3,5.1,73,0.00,,,0.00,WUHU216HW,2013-05-14 11:28:00,
2013-05-14 07:33:00,42.1,33.8,30.11,WNW,293,3.8,4.9,72,0.00,,,0.00,WUHU216HW,2013-05-14 11:33:00,
2013-05-14 07:38:00,42.3,33.9,30.11,WNW,293,3.4,3.8,72,0.00,,,0.00,WUHU216HW,2013-05-14 11:38:00,
2013-05-14 07:43:00,42.3,33.9,30.11,WNW,293,3.4,4.3,72,0.00,,,0.00,WUHU216HW,2013-05-14 11:43:00,
2013-05-14 07:47:00,42.5,34.1,30.11,WNW,293,2.0,4.3,72,0.00,,,0.00,WUHU216HW,2013-05-14 11:47:00,
2013-05-14 07:52:00,42.7,34.0,30.11,NW,315,1.8,2.7,71,0.00,,,0.00,WUHU216HW,2013-05-14 11:52:00,
2013-05-14 07:58:00,42.8,34.2,30.11,NW,315,2.7,2.9,71,0.00,,,0.00,WUHU216HW,2013-05-14 11:58:00,
2013-05-14 08:02:00,42.8,34.2,30.11,WNW,293,2.7,3.4,71,0.00,,,0.00,WUHU216HW,2013-05-14 12:02:00,
2013-05-14 08:07:00,42.8,34.2,30.11,NW,315,2.7,4.0,71,0.00,,,0.00,WUHU216HW,2013-05-14 12:07:00,
2013-05-14 08:12:00,42.8,33.8,30.11,WNW,293,2.2,4.0,70,0.00,,,0.00,WUHU216HW,2013-05-14 12:12:00,
2013-05-14 08:18:00,42.8,33.8,30.11,WNW,293,3.4,4.0,70,0.00,,,0.00,WUHU216HW,2013-05-14 12:18:00,
2013-05-14 08:23:00,42.8,34.2,30.11,WNW,293,4.3,4.3,71,0.00,,,0.00,WUHU216HW,2013-05-14 12:23:00,
2013-05-14 08:28:00,43.0,34.0,30.11,WNW,293,2.9,4.3,70,0.00,,,0.00,WUHU216HW,2013-05-14 12:28:00,
2013-05-14 08:33:00,43.2,34.5,30.11,WNW,293,3.4,3.8,71,0.00,,,0.00,WUHU216HW,2013-05-14 12:33:00,
2013-05-14 08:38:00,43.4,34.7,30.11,WNW,293,3.4,3.4,71,0.00,,,0.00,WUHU216HW,2013-05-14 12:38:00,
2013-05-14 08:43:00,43.6,34.5,30.11,NW,315,3.6,3.6,70,0.00,,,0.00,WUHU216HW,2013-05-14 12:43:00,
2013-05-14 08:48:00,43.6,34.5,30.11,WNW,293,3.1,4.0,70,0.00,,,0.00,WUHU216HW,2013-05-14 12:48:00,
2013-05-14 08:53:00,43.6,34.5,30.10,NW,315,3.1,4.0,70,0.00,,,0.00,WUHU216HW,2013-05-14 12:53:00,
2013-05-14 08:58:00,43.6,34.8,30.10,WNW,293,2.7,3.8,71,0.00,,,0.00,WUHU216HW,2013-05-14 12:58:00,
2013-05-14 09:03:00,43.9,34.5,30.10,WNW,293,3.4,3.8,69,0.00,,,0.00,WUHU216HW,2013-05-14 13:03:00,
2013-05-14 09:08:00,43.9,34.5,30.10,WNW,293,3.4,3.8,69,0.00,,,0.00,WUHU216HW,2013-05-14 13:08:00,
2013-05-14 09:13:00,44.3,34.7,30.10,WNW,293,3.8,3.8,69,0.00,,,0.00,WUHU216HW,2013-05-14 13:13:00,
2013-05-14 09:18:00,44.3,34.4,30.10,NW,315,2.5,3.8,68,0.00,,,0.00,WUHU216HW,2013-05-14 13:18:00,
2013-05-14 09:23:00,45.0,35.1,30.09,NW,315,1.1,3.1,68,0.00,,,0.00,WUHU216HW,2013-05-14 13:23:00,
2013-05-14 09:27:00,45.9,34.7,30.09,NW,315,1.3,3.8,65,0.00,,,0.00,WUHU216HW,2013-05-14 13:27:00,
2013-05-14 09:32:00,46.3,34.3,30.09,WNW,293,1.3,3.8,63,0.00,,,0.00,WUHU216HW,2013-05-14 13:32:00,
2013-05-14 09:37:00,46.6,34.7,30.09,WNW,293,2.9,3.1,63,0.00,,,0.00,WUHU216HW,2013-05-14 13:37:00,
2013-05-14 09:42:00,47.2,34.8,30.09,West,270,1.1,3.1,62,0.00,,,0.00,WUHU216HW,2013-05-14 13:42:00,
2013-05-14 09:47:00,47.9,35.1,30.08,NW,315,1.3,2.5,61,0.00,,,0.00,WUHU216HW,2013-05-14 13:47:00,
2013-05-14 09:52:00,48.2,35.5,30.08,NNW,338,1.8,3.4,61,0.00,,,0.00,WUHU216HW,2013-05-14 13:52:00,
2013-05-14 09:57:00,48.6,35.5,30.08,WNW,293,2.7,3.4,60,0.00,,,0.00,WUHU216HW,2013-05-14 13:57:00,
2013-05-14 10:02:00,48.8,35.6,30.08,NW,315,0.7,3.4,60,0.00,,,0.00,WUHU216HW,2013-05-14 14:02:00,
2013-05-14 10:07:00,48.8,35.1,30.08,WNW,293,2.2,3.4,59,0.00,,,0.00,WUHU216HW,2013-05-14 14:07:00,
2013-05-14 10:12:00,48.4,34.8,30.08,WNW,293,2.9,4.3,59,0.00,,,0.00,WUHU216HW,2013-05-14 14:12:00,
2013-05-14 10:17:00,48.2,35.1,30.08,WNW,293,3.6,4.3,60,0.00,,,0.00,WUHU216HW,2013-05-14 14:17:00,
2013-05-14 10:22:00,48.1,34.0,30.07,WNW,293,0.4,4.7,58,0.00,,,0.00,WUHU216HW,2013-05-14 14:22:00,
2013-05-14 10:27:00,48.6,34.5,30.08,WNW,293,2.7,4.7,58,0.00,,,0.00,WUHU216HW,2013-05-14 14:27:00,
2013-05-14 10:32:00,48.8,33.8,30.08,NW,315,4.0,4.0,56,0.00,,,0.00,WUHU216HW,2013-05-14 14:32:00,
2013-05-14 10:37:00,48.6,33.6,30.08,NW,315,3.4,4.0,56,0.00,,,0.00,WUHU216HW,2013-05-14 14:37:00,
2013-05-14 10:42:00,48.6,33.6,30.08,NW,315,3.4,3.8,56,0.00,,,0.00,WUHU216HW,2013-05-14 14:42:00,
2013-05-14 10:59:00,47.7,33.2,30.08,WNW,293,2.9,2.9,57,0.00,,,0.00,WUHU216HW,2013-05-14 14:59:00,
2013-05-14 11:04:00,47.9,32.9,30.07,NW,315,2.7,4.0,56,0.00,,,0.00,WUHU216HW,2013-05-14 15:04:00,
2013-05-14 11:09:00,48.1,33.0,30.07,NW,315,0.4,4.0,56,0.00,,,0.00,WUHU216HW,2013-05-14 15:09:00,
2013-05-14 11:14:00,48.8,33.3,30.07,NW,315,5.4,5.4,55,0.00,,,0.00,WUHU216HW,2013-05-14 15:14:00,
2013-05-14 11:19:00,49.1,32.7,30.07,WNW,293,3.1,5.4,53,0.00,,,0.00,WUHU216HW,2013-05-14 15:19:00,
2013-05-14 11:24:00,49.1,32.2,30.07,NW,315,4.3,4.7,52,0.00,,,0.00,WUHU216HW,2013-05-14 15:24:00,
2013-05-14 11:29:00,49.0,32.9,30.07,WNW,293,2.9,4.7,54,0.00,,,0.00,WUHU216HW,2013-05-14 15:29:00,
2013-05-14 11:34:00,49.3,33.3,30.07,West,270,2.9,3.4,54,0.00,,,0.00,WUHU216HW,2013-05-14 15:34:00,
2013-05-14 11:39:00,49.3,32.9,30.07,WNW,293,3.4,4.5,53,0.00,,,0.00,WUHU216HW,2013-05-14 15:39:00,
2013-05-14 11:44:00,49.0,33.9,30.07,NW,315,3.6,4.5,56,0.00,,,0.00,WUHU216HW,2013-05-14 15:44:00,
2013-05-14 11:49:00,48.6,33.6,30.07,WNW,293,2.5,3.6,56,0.00,,,0.00,WUHU216HW,2013-05-14 15:49:00,
2013-05-14 11:54:00,48.8,34.2,30.07,WNW,293,2.9,3.4,57,0.00,,,0.00,WUHU216HW,2013-05-14 15:54:00,
2013-05-14 11:59:00,49.0,33.9,30.07,WNW,293,2.9,4.3,56,0.00,,,0.00,WUHU216HW,2013-05-14 15:59:00,
2013-05-14 12:04:00,48.8,33.8,30.07,West,270,2.2,4.3,56,0.00,,,0.00,WUHU216HW,2013-05-14 16:04:00,
2013-05-14 12:09:00,49.1,34.6,30.07,West,270,2.5,3.4,57,0.00,,,0.00,WUHU216HW,2013-05-14 16:09:00,
2013-05-14 12:14:00,49.3,33.8,30.07,West,270,2.5,3.4,55,0.00,,,0.00,WUHU216HW,2013-05-14 16:14:00,
2013-05-14 12:19:00,49.5,33.9,30.07,West,270,2.0,2.7,55,0.00,,,0.00,WUHU216HW,2013-05-14 16:19:00,
2013-05-14 12:24:00,49.3,33.8,30.07,WNW,293,1.8,2.5,55,0.00,,,0.00,WUHU216HW,2013-05-14 16:24:00,
2013-05-14 12:29:00,49.3,33.8,30.07,West,270,1.6,2.0,55,0.00,,,0.00,WUHU216HW,2013-05-14 16:29:00,
2013-05-14 12:34:00,49.7,34.1,30.07,West,270,1.1,1.8,55,0.00,,,0.00,WUHU216HW,2013-05-14 16:34:00,
2013-05-14 12:39:00,50.2,34.2,30.07,WNW,293,1.6,1.8,54,0.00,,,0.00,WUHU216HW,2013-05-14 16:39:00,
2013-05-14 12:44:00,50.8,34.2,30.06,WNW,293,2.0,2.0,53,0.00,,,0.00,WUHU216HW,2013-05-14 16:44:00,
2013-05-14 12:49:00,51.1,34.6,30.06,West,270,1.8,2.0,53,0.00,,,0.00,WUHU216HW,2013-05-14 16:49:00,
2013-05-14 12:54:00,51.5,34.8,30.07,West,270,1.1,2.0,53,0.00,,,0.00,WUHU216HW,2013-05-14 16:54:00,
2013-05-14 12:59:00,51.7,34.6,30.07,WNW,293,2.5,2.5,52,0.00,,,0.00,WUHU216HW,2013-05-14 16:59:00,
2013-05-14 13:04:00,51.3,33.9,30.06,WNW,293,3.4,3.4,51,0.00,,,0.00,WUHU216HW,2013-05-14 17:04:00,
2013-05-14 13:09:00,50.8,33.3,30.06,WNW,293,2.9,3.4,51,0.00,,,0.00,WUHU216HW,2013-05-14 17:09:00,
2013-05-14 13:14:00,50.8,32.9,30.07,WNW,293,2.5,4.0,50,0.00,,,0.00,WUHU216HW,2013-05-14 17:14:00,
2013-05-14 13:19:00,50.6,33.1,30.06,WNW,293,2.2,4.0,51,0.00,,,0.00,WUHU216HW,2013-05-14 17:19:00,
2013-05-14 13:24:00,50.8,33.8,30.06,WNW,293,1.8,2.9,52,0.00,,,0.00,WUHU216HW,2013-05-14 17:24:00,
2013-05-14 13:29:00,50.9,33.9,30.06,WNW,293,2.0,2.0,52,0.00,,,0.00,WUHU216HW,2013-05-14 17:29:00,
2013-05-14 13:34:00,51.5,33.9,30.06,NW,315,2.0,2.5,51,0.00,,,0.00,WUHU216HW,2013-05-14 17:34:00,
2013-05-14 13:39:00,51.8,33.8,30.06,WNW,293,1.8,2.5,50,0.00,,,0.00,WUHU216HW,2013-05-14 17:39:00,
2013-05-14 13:44:00,52.4,33.8,30.06,WNW,293,2.2,2.5,49,0.00,,,0.00,WUHU216HW,2013-05-14 17:44:00,
2013-05-14 13:49:00,52.7,33.6,30.06,WNW,293,1.6,2.5,48,0.00,,,0.00,WUHU216HW,2013-05-14 17:49:00,
2013-05-14 13:54:00,52.9,34.3,30.05,NW,315,2.2,2.9,49,0.00,,,0.00,WUHU216HW,2013-05-14 17:54:00,
2013-05-14 13:59:00,52.9,34.3,30.05,WNW,293,2.0,2.9,49,0.00,,,0.00,WUHU216HW,2013-05-14 17:59:00,
2013-05-14 14:04:00,53.3,34.0,30.05,ENE,68,3.8,3.8,48,0.00,,,0.00,WUHU216HW,2013-05-14 18:04:00,
2013-05-14 14:09:00,54.4,35.0,30.05,WSW,248,1.3,3.8,48,0.00,,,0.00,WUHU216HW,2013-05-14 18:09:00,
2013-05-14 14:14:00,54.7,34.7,30.04,NW,315,2.5,2.7,47,0.00,,,0.00,WUHU216HW,2013-05-14 18:14:00,
2013-05-14 14:19:00,54.2,33.8,30.04,NW,315,0.4,2.7,46,0.00,,,0.00,WUHU216HW,2013-05-14 18:19:00,
2013-05-14 14:24:00,54.2,33.8,30.04,WNW,293,1.8,2.5,46,0.00,,,0.00,WUHU216HW,2013-05-14 18:24:00,
2013-05-14 14:29:00,54.0,34.1,30.04,WNW,293,3.1,3.1,47,0.00,,,0.00,WUHU216HW,2013-05-14 18:29:00,
2013-05-14 14:34:00,54.0,33.6,30.04,NW,315,2.5,3.1,46,0.00,,,0.00,WUHU216HW,2013-05-14 18:34:00,
2013-05-14 14:39:00,54.0,33.6,30.04,WNW,293,4.0,4.7,46,0.00,,,0.00,WUHU216HW,2013-05-14 18:39:00,
2013-05-14 14:44:00,53.6,33.2,30.03,WNW,293,2.9,4.7,46,0.00,,,0.00,WUHU216HW,2013-05-14 18:44:00,
2013-05-14 14:49:00,54.0,33.6,30.03,West,270,2.0,3.6,46,0.00,,,0.00,WUHU216HW,2013-05-14 18:49:00,
2013-05-14 14:54:00,54.0,34.7,30.03,NW,315,5.4,5.4,48,0.00,,,0.00,WUHU216HW,2013-05-14 18:54:00,
2013-05-14 14:59:00,53.6,33.2,30.03,West,270,1.8,5.4,46,0.00,,,0.00,WUHU216HW,2013-05-14 18:59:00,
2013-05-14 15:04:00,53.8,35.1,30.03,WNW,293,2.9,5.1,49,0.00,,,0.00,WUHU216HW,2013-05-14 19:04:00,
2013-05-14 15:09:00,54.2,36.5,30.03,West,270,1.6,2.9,51,0.00,,,0.00,WUHU216HW,2013-05-14 19:09:00,
2013-05-14 15:14:00,54.7,36.5,30.03,West,270,0.7,2.5,50,0.00,,,0.00,WUHU216HW,2013-05-14 19:14:00,
2013-05-14 15:19:00,55.1,36.7,30.03,West,270,0.7,1.8,50,0.00,,,0.00,WUHU216HW,2013-05-14 19:19:00,
2013-05-14 15:24:00,55.6,36.7,30.02,WNW,293,1.6,1.8,49,0.00,,,0.00,WUHU216HW,2013-05-14 19:24:00,
2013-05-14 15:29:00,55.6,36.2,30.02,WNW,293,1.3,1.8,48,0.00,,,0.00,WUHU216HW,2013-05-14 19:29:00,
2013-05-14 15:34:00,55.8,35.7,30.02,WNW,293,1.1,1.8,47,0.00,,,0.00,WUHU216HW,2013-05-14 19:34:00,
2013-05-14 15:39:00,56.0,35.4,30.02,WNW,293,0.4,1.6,46,0.00,,,0.00,WUHU216HW,2013-05-14 19:39:00,
2013-05-14 15:44:00,56.5,35.9,30.02,West,270,0.7,1.1,46,0.00,,,0.00,WUHU216HW,2013-05-14 19:44:00,
2013-05-14 15:49:00,56.7,36.1,30.01,West,270,1.1,1.1,46,0.00,,,0.00,WUHU216HW,2013-05-14 19:49:00,
2013-05-14 15:54:00,56.7,36.1,30.01,West,270,1.1,1.1,46,0.00,,,0.00,WUHU216HW,2013-05-14 19:54:00,
2013-05-14 15:59:00,58.5,36.0,30.00,West,270,1.3,1.3,43,0.00,,,0.00,WUHU216HW,2013-05-14 19:59:00,
2013-05-14 16:04:00,58.7,35.6,30.00,West,270,1.8,1.8,42,0.00,,,0.00,WUHU216HW,2013-05-14 20:04:00,
2013-05-14 16:09:00,58.9,36.3,30.01,West,270,1.8,1.8,43,0.00,,,0.00,WUHU216HW,2013-05-14 20:09:00,
2013-05-14 16:14:00,58.9,36.3,30.01,WNW,293,2.5,2.5,43,0.00,,,0.00,WUHU216HW,2013-05-14 20:14:00,
2013-05-14 16:19:00,58.5,36.0,30.00,WNW,293,1.8,2.5,43,0.00,,,0.00,WUHU216HW,2013-05-14 20:19:00,
2013-05-14 16:24:00,58.7,36.2,30.00,WNW,293,2.2,2.2,43,0.00,,,0.00,WUHU216HW,2013-05-14 20:24:00,
2013-05-14 16:29:00,58.5,35.4,30.00,WNW,293,2.9,4.5,42,0.00,,,0.00,WUHU216HW,2013-05-14 20:29:00,
2013-05-14 16:34:00,58.3,35.8,30.00,West,270,2.0,4.5,43,0.00,,,0.00,WUHU216HW,2013-05-14 20:34:00,
2013-05-14 16:39:00,57.6,35.2,30.00,WNW,293,1.1,3.1,43,0.00,,,0.00,WUHU216HW,2013-05-14 20:39:00,
2013-05-14 16:44:00,57.2,34.8,29.99,WNW,293,2.5,2.5,43,0.00,,,0.00,WUHU216HW,2013-05-14 20:44:00,
2013-05-14 16:49:00,56.5,35.3,29.99,WNW,293,3.6,3.6,45,0.00,,,0.00,WUHU216HW,2013-05-14 20:49:00,
2013-05-14 16:54:00,56.0,35.4,29.99,WNW,293,5.6,5.6,46,0.00,,,0.00,WUHU216HW,2013-05-14 20:54:00,
2013-05-14 16:59:00,55.6,35.6,29.99,WNW,293,5.1,6.5,47,0.00,,,0.00,WUHU216HW,2013-05-14 20:59:00,
2013-05-14 17:04:00,55.6,36.2,29.99,WNW,293,3.8,6.5,48,0.00,,,0.00,WUHU216HW,2013-05-14 21:04:00,
2013-05-14 17:09:00,56.0,35.9,29.99,WNW,293,1.1,4.9,47,0.00,,,0.00,WUHU216HW,2013-05-14 21:09:00,
2013-05-14 17:14:00,56.7,36.1,29.99,WNW,293,1.3,3.1,46,0.00,,,0.00,WUHU216HW,2013-05-14 21:14:00,
2013-05-14 17:19:00,57.1,36.4,29.99,NW,315,5.6,5.6,46,0.00,,,0.00,WUHU216HW,2013-05-14 21:19:00,
2013-05-14 17:24:00,57.1,38.2,29.99,WNW,293,2.5,5.6,49,0.00,,,0.00,WUHU216HW,2013-05-14 21:24:00,
2013-05-14 17:29:00,56.9,37.4,29.99,WNW,293,2.5,5.6,48,0.00,,,0.00,WUHU216HW,2013-05-14 21:29:00,
2013-05-14 17:34:00,56.9,36.8,29.98,WNW,293,2.9,2.9,47,0.00,,,0.00,WUHU216HW,2013-05-14 21:34:00,
2013-05-14 17:39:00,56.7,37.2,29.98,WNW,293,1.8,2.9,48,0.00,,,0.00,WUHU216HW,2013-05-14 21:39:00,
2013-05-14 17:44:00,56.9,37.4,29.98,WNW,293,1.8,2.7,48,0.00,,,0.00,WUHU216HW,2013-05-14 21:44:00,
2013-05-14 17:49:00,58.0,38.3,29.98,WNW,293,3.6,3.6,48,0.00,,,0.00,WUHU216HW,2013-05-14 21:49:00,
2013-05-14 17:54:00,58.1,39.2,29.98,WNW,293,3.6,4.0,49,0.00,,,0.00,WUHU216HW,2013-05-14 21:54:00,
2013-05-14 17:59:00,58.3,40.3,29.98,WNW,293,3.1,4.0,51,0.00,,,0.00,WUHU216HW,2013-05-14 21:59:00,
2013-05-14 18:04:00,59.0,41.0,29.98,WNW,293,2.5,3.6,51,0.00,,,0.00,WUHU216HW,2013-05-14 22:04:00,
2013-05-14 18:09:00,59.0,40.5,29.98,WNW,293,2.5,3.1,50,0.00,,,0.00,WUHU216HW,2013-05-14 22:09:00,
2013-05-14 18:14:00,58.3,39.2,29.98,WNW,293,1.6,2.5,49,0.00,,,0.00,WUHU216HW,2013-05-14 22:14:00,
2013-05-14 18:19:00,58.7,40.7,29.98,WNW,293,2.2,2.2,51,0.00,,,0.00,WUHU216HW,2013-05-14 22:19:00,
2013-05-14 18:24:00,59.9,41.8,29.98,WNW,293,4.0,4.0,51,0.00,,,0.00,WUHU216HW,2013-05-14 22:24:00,
2013-05-14 18:29:00,60.3,41.7,29.98,WNW,293,3.1,4.0,50,0.00,,,0.00,WUHU216HW,2013-05-14 22:29:00,
2013-05-14 18:34:00,61.0,41.7,29.98,WNW,293,1.6,4.0,49,0.00,,,0.00,WUHU216HW,2013-05-14 22:34:00,
2013-05-14 18:39:00,62.3,42.8,29.98,WNW,293,2.0,2.5,49,0.00,,,0.00,WUHU216HW,2013-05-14 22:39:00,
2013-05-14 18:44:00,62.3,42.3,29.98,WNW,293,2.2,2.5,48,0.00,,,0.00,WUHU216HW,2013-05-14 22:44:00,
2013-05-14 18:49:00,60.1,40.3,29.98,NW,315,1.3,2.5,48,0.00,,,0.00,WUHU216HW,2013-05-14 22:49:00,
2013-05-14 18:54:00,59.0,40.5,29.98,NW,315,0.4,2.5,50,0.00,,,0.00,WUHU216HW,2013-05-14 22:54:00,
2013-05-14 18:59:00,61.2,41.9,29.98,West,270,1.8,1.8,49,0.00,,,0.00,WUHU216HW,2013-05-14 22:59:00,
2013-05-14 19:04:00,62.1,43.3,29.98,WNW,293,2.2,3.4,50,0.00,,,0.00,WUHU216HW,2013-05-14 23:04:00,
2013-05-14 19:09:00,63.9,43.8,29.98,NW,315,1.8,3.4,48,0.00,,,0.00,WUHU216HW,2013-05-14 23:09:00,
2013-05-14 19:14:00,67.9,46.3,29.98,WNW,293,0.4,2.2,46,0.00,,,0.00,WUHU216HW,2013-05-14 23:14:00,
2013-05-14 19:19:00,71.3,44.3,29.98,WNW,293,0.4,1.8,38,0.00,,,0.00,WUHU216HW,2013-05-14 23:19:00,
2013-05-14 19:24:00,72.4,46.7,29.98,West,270,0.4,0.9,40,0.00,,,0.00,WUHU216HW,2013-05-14 23:24:00,
2013-05-14 19:29:00,72.4,46.7,29.98,West,270,0.4,0.4,40,0.00,,,0.00,WUHU216HW,2013-05-14 23:29:00,
2013-05-14 19:50:00,70.2,44.0,30.00,West,270,0.7,0.7,39,0.00,,,0.00,WUHU216HW,2013-05-14 23:50:00,
2013-05-14 19:55:00,67.5,41.6,30.00,West,270,0.2,0.7,39,0.00,,,0.00,WUHU216HW,2013-05-14 23:55:00,
2013-05-14 20:00:00,64.1,40.4,30.00,WNW,293,1.8,1.8,42,0.00,,,0.00,WUHU216HW,2013-05-15 00:00:00,
2013-05-14 20:05:00,60.8,38.7,30.00,WNW,293,0.7,2.2,44,0.00,,,0.00,WUHU216HW,2013-05-15 00:05:00,
2013-05-14 20:10:00,59.2,37.8,29.99,WNW,293,0.0,2.2,45,0.00,,,0.00,WUHU216HW,2013-05-15 00:10:00,
2013-05-14 20:15:00,58.1,37.4,29.99,WNW,293,0.0,0.7,46,0.00,,,0.00,WUHU216HW,2013-05-15 00:15:00,
2013-05-14 20:20:00,57.2,37.7,29.99,WNW,293,0.0,0.0,48,0.00,,,0.00,WUHU216HW,2013-05-15 00:20:00,
2013-05-14 20:25:00,56.5,37.6,29.99,WNW,293,0.0,0.0,49,0.00,,,0.00,WUHU216HW,2013-05-15 00:25:00,
2013-05-14 20:30:00,56.0,36.5,30.00,WNW,293,0.0,0.0,48,0.00,,,0.00,WUHU216HW,2013-05-15 00:30:00,
2013-05-14 20:35:00,55.3,36.4,30.00,WSW,248,0.0,0.0,49,0.00,,,0.00,WUHU216HW,2013-05-15 00:35:00,
2013-05-14 20:40:00,54.5,36.3,30.00,West,270,0.7,1.1,50,0.00,,,0.00,WUHU216HW,2013-05-15 00:40:00,
2013-05-14 20:45:00,54.4,36.1,30.00,West,270,0.7,1.1,50,0.00,,,0.00,WUHU216HW,2013-05-15 00:45:00,
2013-05-14 20:50:00,54.4,36.1,30.00,West,270,0.7,0.7,50,0.00,,,0.00,WUHU216HW,2013-05-15 00:50:00,
2013-05-14 20:59:00,52.2,35.6,30.00,West,270,0.0,0.0,53,0.00,,,0.00,WUHU216HW,2013-05-15 00:59:00,
2013-05-14 21:04:00,51.8,35.6,30.00,West,270,0.0,0.0,54,0.00,,,0.00,WUHU216HW,2013-05-15 01:04:00,
2013-05-14 21:09:00,51.5,35.3,30.01,West,270,0.0,0.0,54,0.00,,,0.00,WUHU216HW,2013-05-15 01:09:00,
2013-05-14 21:14:00,50.9,34.8,30.01,West,270,0.0,0.0,54,0.00,,,0.00,WUHU216HW,2013-05-15 01:14:00,
2013-05-14 21:19:00,50.6,34.9,30.01,West,270,0.0,0.0,55,0.00,,,0.00,WUHU216HW,2013-05-15 01:19:00,
2013-05-14 21:24:00,50.0,34.5,30.01,West,270,0.0,0.0,55,0.00,,,0.00,WUHU216HW,2013-05-15 01:24:00,
2013-05-14 21:29:00,49.7,34.6,30.01,West,270,0.0,0.0,56,0.00,,,0.00,WUHU216HW,2013-05-15 01:29:00,
2013-05-14 21:34:00,49.3,34.2,30.01,West,270,0.0,0.0,56,0.00,,,0.00,WUHU216HW,2013-05-15 01:34:00,
2013-05-14 21:39:00,49.0,34.4,30.02,West,270,0.0,0.0,57,0.00,,,0.00,WUHU216HW,2013-05-15 01:39:00,
2013-05-14 21:44:00,48.6,34.5,30.02,West,270,0.0,0.0,58,0.00,,,0.00,WUHU216HW,2013-05-15 01:44:00,
2013-05-14 21:49:00,48.4,34.3,30.02,West,270,0.0,0.0,58,0.00,,,0.00,WUHU216HW,2013-05-15 01:49:00,
2013-05-14 21:54:00,48.1,34.0,30.02,SSE,158,0.0,0.0,58,0.00,,,0.00,WUHU216HW,2013-05-15 01:54:00,
2013-05-14 21:59:00,47.7,34.1,30.02,SSE,158,0.0,0.0,59,0.00,,,0.00,WUHU216HW,2013-05-15 01:59:00,
2013-05-14 22:04:00,47.5,33.9,30.02,SE,135,0.0,0.0,59,0.00,,,0.00,WUHU216HW,2013-05-15 02:04:00,
2013-05-14 22:09:00,47.3,33.8,30.02,WSW,248,0.0,0.0,59,0.00,,,0.00,WUHU216HW,2013-05-15 02:09:00,
2013-05-14 22:14:00,47.2,33.6,30.02,WSW,248,0.0,0.0,59,0.00,,,0.00,WUHU216HW,2013-05-15 02:14:00,
2013-05-14 22:19:00,47.0,33.0,30.02,NNW,338,0.0,0.0,58,0.00,,,0.00,WUHU216HW,2013-05-15 02:19:00,
2013-05-14 22:24:00,46.6,32.6,30.02,NNW,338,0.4,0.9,58,0.00,,,0.00,WUHU216HW,2013-05-15 02:24:00,
2013-05-14 22:29:00,46.4,32.4,30.02,NNW,338,0.0,0.9,58,0.00,,,0.00,WUHU216HW,2013-05-15 02:29:00,
2013-05-14 22:34:00,46.1,32.0,30.02,ESE,113,1.6,2.0,58,0.00,,,0.00,WUHU216HW,2013-05-15 02:34:00,
2013-05-14 22:39:00,45.4,31.9,30.03,East,90,1.1,2.0,59,0.00,,,0.00,WUHU216HW,2013-05-15 02:39:00,
2013-05-14 22:44:00,44.8,31.4,30.03,East,90,1.6,2.0,59,0.00,,,0.00,WUHU216HW,2013-05-15 02:44:00,
2013-05-14 22:49:00,44.1,31.1,30.02,ESE,113,0.9,1.8,60,0.00,,,0.00,WUHU216HW,2013-05-15 02:49:00,
2013-05-14 22:54:00,43.6,30.6,30.02,ESE,113,0.9,1.3,60,0.00,,,0.00,WUHU216HW,2013-05-15 02:54:00,
2013-05-14 22:59:00,43.4,30.8,30.02,East,90,0.7,1.1,61,0.00,,,0.00,WUHU216HW,2013-05-15 02:59:00,
2013-05-14 23:04:00,43.2,30.6,30.02,ESE,113,1.1,1.1,61,0.00,,,0.00,WUHU216HW,2013-05-15 03:04:00,
2013-05-14 23:09:00,43.0,30.4,30.02,East,90,1.1,1.1,61,0.00,,,0.00,WUHU216HW,2013-05-15 03:09:00,
2013-05-14 23:14:00,42.8,30.2,30.03,ESE,113,1.8,1.8,61,0.00,,,0.00,WUHU216HW,2013-05-15 03:14:00,
2013-05-14 23:19:00,42.5,30.3,30.02,ESE,113,1.1,2.0,62,0.00,,,0.00,WUHU216HW,2013-05-15 03:19:00,
2013-05-14 23:24:00,42.3,30.2,30.03,East,90,1.1,2.0,62,0.00,,,0.00,WUHU216HW,2013-05-15 03:24:00,
2013-05-14 23:29:00,42.1,30.4,30.03,ESE,113,0.0,1.6,63,0.00,,,0.00,WUHU216HW,2013-05-15 03:29:00,
2013-05-14 23:34:00,41.9,30.3,30.02,ESE,113,0.0,0.9,63,0.00,,,0.00,WUHU216HW,2013-05-15 03:34:00,
2013-05-14 23:39:00,41.9,30.3,30.02,East,90,0.0,1.1,63,0.00,,,0.00,WUHU216HW,2013-05-15 03:39:00,
2013-05-14 23:44:00,41.9,30.6,30.03,East,90,0.0,1.1,64,0.00,,,0.00,WUHU216HW,2013-05-15 03:44:00,
2013-05-14 23:49:00,41.8,30.4,30.03,ESE,113,0.0,1.1,64,0.00,,,0.00,WUHU216HW,2013-05-15 03:49:00,
2013-05-14 23:54:00,41.6,30.2,30.03,SE,135,2.5,2.5,64,0.00,,,0.00,WUHU216HW,2013-05-15 03:54:00,
2013-05-14 23:59:00,41.4,30.2,30.03,ESE,113,2.5,2.5,64,0.00,,,0.00,WUHU216HW,2013-05-15 03:59:00,